TimePDT,TemperatureF,Dew PointF,Humidity,Sea Level PressureIn,VisibilityMPH,Wind Direction,Wind SpeedMPH,Gust SpeedMPH,PrecipitationIn,Events,Conditions,WindDirDegrees,DateUTC
12:15 AM,60.8,57.2,88,29.90,10.0,Calm,Calm,-,N/A,,Overcast,0,2013-09-16 07:15:00
12:35 AM,60.8,57.2,88,29.90,10.0,Calm,Calm,-,N/A,,Overcast,0,2013-09-16 07:35:00
12:55 AM,60.8,57.2,88,29.91,10.0,Calm,Calm,-,N/A,,Overcast,0,2013-09-16 07:55:00
1:15 AM,60.8,57.2,88,29.91,10.0,Calm,Calm,-,N/A,,Overcast,0,2013-09-16 08:15:00
1:35 AM,60.8,57.2,88,29.92,10.0,Calm,Calm,-,N/A,,Overcast,0,2013-09-16 08:35:00
1:55 AM,60.8,57.2,88,29.92,10.0,SE,3.5,-,N/A,,Overcast,130,2013-09-16 08:55:00
2:15 AM,60.8,57.2,88,29.92,10.0,Calm,Calm,-,N/A,,Overcast,0,2013-09-16 09:15:00
2:35 AM,60.8,57.2,88,29.92,10.0,Calm,Calm,-,N/A,,Overcast,0,2013-09-16 09:35:00
2:55 AM,60.8,57.2,88,29.93,10.0,Calm,Calm,-,N/A,,Overcast,0,2013-09-16 09:55:00
3:15 AM,60.8,57.2,88,29.93,10.0,SSE,3.5,-,N/A,,Overcast,160,2013-09-16 10:15:00
3:35 AM,60.8,57.2,88,29.93,10.0,SE,3.5,-,N/A,,Overcast,140,2013-09-16 10:35:00
3:55 AM,60.8,55.4,82,29.94,10.0,SSE,4.6,-,N/A,,Overcast,160,2013-09-16 10:55:00
4:15 AM,60.8,55.4,82,29.94,10.0,South,3.5,-,N/A,,Overcast,170,2013-09-16 11:15:00
4:35 AM,60.8,55.4,82,29.94,10.0,SSE,5.8,-,N/A,,Overcast,150,2013-09-16 11:35:00
4:55 AM,60.8,55.4,82,29.94,10.0,SSE,3.5,-,N/A,,Overcast,150,2013-09-16 11:55:00
5:15 AM,60.8,55.4,82,29.95,10.0,SSE,4.6,-,N/A,,Overcast,150,2013-09-16 12:15:00
5:35 AM,60.8,55.4,82,29.95,10.0,SSE,6.9,-,N/A,,Overcast,150,2013-09-16 12:35:00
5:55 AM,60.8,55.4,82,29.95,10.0,SSE,5.8,-,N/A,,Overcast,150,2013-09-16 12:55:00
6:15 AM,60.8,55.4,82,29.95,5.0,SE,4.6,-,N/A,,Mostly Cloudy,140,2013-09-16 13:15:00
6:35 AM,60.8,55.4,82,29.95,10.0,SSE,4.6,-,N/A,,Overcast,150,2013-09-16 13:35:00
6:55 AM,60.8,55.4,82,29.95,10.0,SSE,6.9,-,N/A,,Overcast,150,2013-09-16 13:55:00
7:15 AM,60.8,55.4,82,29.96,10.0,SSE,8.1,-,N/A,,Overcast,150,2013-09-16 14:15:00
7:35 AM,60.8,53.6,77,29.96,10.0,SE,5.8,-,N/A,,Overcast,140,2013-09-16 14:35:00
7:55 AM,60.8,55.4,82,29.96,10.0,SSE,5.8,-,N/A,,Overcast,160,2013-09-16 14:55:00
8:15 AM,60.8,55.4,82,29.97,10.0,SSE,8.1,-,N/A,,Overcast,160,2013-09-16 15:15:00
8:35 AM,60.8,55.4,82,29.97,10.0,SSE,6.9,-,N/A,,Overcast,160,2013-09-16 15:35:00
8:55 AM,60.8,55.4,82,29.97,10.0,SSE,6.9,-,N/A,,Mostly Cloudy,160,2013-09-16 15:55:00
9:15 AM,60.8,55.4,82,29.97,10.0,SSE,8.1,-,N/A,,Overcast,160,2013-09-16 16:15:00
9:35 AM,60.8,55.4,82,29.98,10.0,SSE,8.1,-,N/A,,Overcast,160,2013-09-16 16:35:00
9:55 AM,60.8,55.4,82,29.98,9.0,SSE,11.5,16.1,N/A,,Overcast,150,2013-09-16 16:55:00
10:15 AM,60.8,55.4,82,29.98,10.0,SSE,10.4,-,N/A,,Mostly Cloudy,150,2013-09-16 17:15:00
10:35 AM,60.8,55.4,82,29.99,10.0,SSE,9.2,-,N/A,,Overcast,160,2013-09-16 17:35:00
10:55 AM,60.8,55.4,82,29.99,10.0,SSE,5.8,-,N/A,,Mostly Cloudy,150,2013-09-16 17:55:00
11:15 AM,62.6,55.4,77,30.00,10.0,SSE,9.2,-,N/A,,Mostly Cloudy,160,2013-09-16 18:15:00
11:35 AM,62.6,57.2,82,30.00,10.0,South,9.2,-,N/A,,Overcast,170,2013-09-16 18:35:00
11:55 AM,62.6,55.4,77,30.00,10.0,SSE,6.9,-,N/A,,Overcast,160,2013-09-16 18:55:00
12:15 PM,62.6,57.2,82,30.00,10.0,SSE,6.9,-,N/A,,Overcast,160,2013-09-16 19:15:00
12:35 PM,64.4,55.4,73,30.00,10.0,South,6.9,-,N/A,,Mostly Cloudy,170,2013-09-16 19:35:00
12:55 PM,64.4,55.4,73,30.00,10.0,SSE,6.9,-,N/A,,Mostly Cloudy,160,2013-09-16 19:55:00
1:15 PM,64.4,57.2,77,30.00,10.0,South,8.1,-,N/A,,Overcast,170,2013-09-16 20:15:00
1:35 PM,64.4,57.2,77,30.00,8.0,SSE,8.1,-,N/A,,Overcast,160,2013-09-16 20:35:00
1:55 PM,66.2,57.2,73,30.00,10.0,South,10.4,-,N/A,,Overcast,170,2013-09-16 20:55:00
2:15 PM,64.4,57.2,77,29.99,10.0,SE,9.2,-,N/A,,Overcast,140,2013-09-16 21:15:00
2:35 PM,64.4,57.2,77,30.00,7.0,South,8.1,-,0.04,,Mostly Cloudy,180,2013-09-16 21:35:00
2:55 PM,64.4,59.0,83,29.99,10.0,South,5.8,-,0.04,,Overcast,180,2013-09-16 21:55:00
3:15 PM,64.4,57.2,77,29.99,10.0,Calm,Calm,-,N/A,,Mostly Cloudy,0,2013-09-16 22:15:00
3:35 PM,62.6,57.2,82,30.00,5.0,Calm,Calm,-,0.07,,Mostly Cloudy,0,2013-09-16 22:35:00
3:55 PM,62.6,57.2,82,29.99,5.0,Calm,Calm,-,0.08,,Overcast,0,2013-09-16 22:55:00
4:15 PM,64.4,57.2,77,29.99,10.0,Calm,Calm,-,N/A,,Overcast,0,2013-09-16 23:15:00
4:35 PM,64.4,57.2,77,29.98,10.0,Calm,Calm,-,N/A,,Mostly Cloudy,0,2013-09-16 23:35:00
4:55 PM,64.4,57.2,77,29.98,10.0,Calm,Calm,-,N/A,,Mostly Cloudy,0,2013-09-16 23:55:00
5:15 PM,66.2,57.2,73,29.98,10.0,Calm,Calm,-,N/A,,Overcast,0,2013-09-17 00:15:00
5:35 PM,66.2,59.0,78,29.97,10.0,South,3.5,-,N/A,,Overcast,190,2013-09-17 00:35:00
5:55 PM,64.4,57.2,77,29.97,10.0,South,3.5,-,N/A,,Mostly Cloudy,170,2013-09-17 00:55:00
6:15 PM,66.2,57.2,73,29.97,10.0,South,3.5,-,N/A,,Mostly Cloudy,170,2013-09-17 01:15:00
6:35 PM,66.2,59.0,78,29.97,10.0,SSE,5.8,-,N/A,,Mostly Cloudy,150,2013-09-17 01:35:00
6:55 PM,64.4,57.2,77,29.97,10.0,Calm,Calm,-,N/A,,Overcast,0,2013-09-17 01:55:00
7:15 PM,64.4,57.2,77,29.97,10.0,Calm,Calm,-,N/A,,Mostly Cloudy,0,2013-09-17 02:15:00
7:35 PM,62.6,57.2,82,29.97,10.0,Calm,Calm,-,N/A,,Scattered Clouds,0,2013-09-17 02:35:00
7:55 PM,62.6,55.4,77,29.97,10.0,Calm,Calm,-,N/A,,Mostly Cloudy,0,2013-09-17 02:55:00
8:15 PM,60.8,57.2,88,29.97,10.0,Calm,Calm,-,N/A,,Mostly Cloudy,0,2013-09-17 03:15:00
8:35 PM,60.8,57.2,88,29.97,10.0,Calm,Calm,-,N/A,,Mostly Cloudy,0,2013-09-17 03:35:00
8:55 PM,60.8,55.4,82,29.97,10.0,Calm,Calm,-,N/A,,Partly Cloudy,0,2013-09-17 03:55:00
9:15 PM,59.0,55.4,88,29.96,10.0,Calm,Calm,-,N/A,,Partly Cloudy,0,2013-09-17 04:15:00
9:35 PM,59.0,55.4,88,29.96,10.0,Calm,Calm,-,N/A,,Mostly Cloudy,0,2013-09-17 04:35:00
9:55 PM,57.2,53.6,88,29.96,10.0,Calm,Calm,-,N/A,,Mostly Cloudy,0,2013-09-17 04:55:00
10:15 PM,57.2,53.6,88,29.96,10.0,Calm,Calm,-,N/A,,Mostly Cloudy,0,2013-09-17 05:15:00
10:35 PM,57.2,53.6,88,29.96,10.0,Calm,Calm,-,N/A,,Mostly Cloudy,0,2013-09-17 05:35:00
10:55 PM,57.2,53.6,88,29.96,10.0,Calm,Calm,-,N/A,,Mostly Cloudy,0,2013-09-17 05:55:00
11:15 PM,57.2,53.6,88,29.96,10.0,Calm,Calm,-,N/A,,Mostly Cloudy,0,2013-09-17 06:15:00
11:35 PM,57.2,55.4,94,29.96,10.0,Calm,Calm,-,N/A,,Overcast,0,2013-09-17 06:35:00
11:55 PM,57.2,55.4,94,29.96,10.0,NNW,3.5,-,N/A,,Overcast,340,2013-09-17 06:55:00